| time (UTC) | temp C | wind direction | speed KPH | gust KPH | rain 1hr cm | rain 24hr cm | rain mn cm | humidity % | barometer mb |
| 20260510204502 | 7 | 0 | 0.0 | 1.6 | 0.00 | 0.03 | 0.03 | 94 | 1032.5 |
| 20260510203623 | 7 | 0 | 0.0 | 0.0 | 0.00 | 0.03 | 0.03 | 94 | 1032.4 |
| 20260510202702 | 7 | 0 | 0.0 | 0.0 | 0.00 | 0.03 | 0.03 | 94 | 1032.4 |
| 20260510201802 | 7 | 0 | 0.0 | 0.0 | 0.00 | 0.03 | 0.03 | 94 | 1032.3 |
| 20260510200902 | 8 | 0 | 0.0 | 0.0 | 0.00 | 0.03 | 0.03 | 94 | 1032.3 |
| 20260510200002 | 8 | 0 | 0.0 | 0.0 | 0.00 | 0.03 | 0.03 | 94 | 1032.2 |
| 20260510195402 | 8 | 0 | 0.0 | 1.6 | 0.00 | 0.03 | 0.03 | 94 | 1032.1 |
| 20260510194523 | 8 | 0 | 0.0 | 0.0 | 0.00 | 0.03 | 0.03 | 94 | 1032.1 |
| 20260510193602 | 8 | 0 | 0.0 | 3.2 | 0.00 | 0.03 | 0.03 | 94 | 1032.0 |
| 20260510192723 | 8 | 0 | 0.0 | 1.6 | 0.00 | 0.03 | 0.03 | 94 | 1032.0 |
| 20260510191802 | 8 | 0 | 0.0 | 0.0 | 0.00 | 0.03 | 0.03 | 94 | 1031.8 |
| 20260510190902 | 8 | 0 | 0.0 | 0.0 | 0.00 | 0.03 | 0.03 | 94 | 1031.8 |
| 20260510190002 | 8 | 0 | 0.0 | 0.0 | 0.00 | 0.03 | 0.03 | 94 | 1031.7 |
| 20260510185402 | 8 | 0 | 0.0 | 0.0 | 0.00 | 0.03 | 0.03 | 94 | 1031.6 |
| 20260510184502 | 8 | 0 | 0.0 | 0.0 | 0.00 | 0.03 | 0.03 | 94 | 1031.7 |
| 20260510183602 | 8 | 0 | 0.0 | 0.0 | 0.00 | 0.03 | 0.03 | 94 | 1031.6 |
| 20260510182702 | 8 | 0 | 0.0 | 0.0 | 0.00 | 0.03 | 0.03 | 94 | 1031.5 |
| 20260510181802 | 8 | 0 | 0.0 | 0.0 | 0.00 | 0.03 | 0.03 | 94 | 1031.4 |
| 20260510180902 | 8 | 0 | 0.0 | 3.2 | 0.00 | 0.03 | 0.03 | 93 | 1031.4 |
| 20260510180023 | 8 | 0 | 0.0 | 0.0 | 0.00 | 0.03 | 0.03 | 93 | 1031.4 |
| 20260510175402 | 8 | 0 | 0.0 | 0.0 | 0.00 | 0.03 | 0.03 | 93 | 1031.3 |
| 20260510174502 | 7 | 0 | 0.0 | 0.0 | 0.00 | 0.03 | 0.03 | 93 | 1031.2 |
| 20260510173602 | 7 | 0 | 0.0 | 0.0 | 0.00 | 0.03 | 0.03 | 93 | 1031.1 |
| 20260510172702 | 7 | 0 | 0.0 | 0.0 | 0.00 | 0.03 | 0.03 | 93 | 1031.2 |
| 20260510171802 | 8 | 0 | 0.0 | 0.0 | 0.00 | 0.03 | 0.03 | 92 | 1031.2 |
| 20260510170902 | 8 | 0 | 0.0 | 0.0 | 0.00 | 0.03 | 0.03 | 93 | 1031.1 |
| 20260510170002 | 8 | 0 | 0.0 | 0.0 | 0.00 | 0.03 | 0.03 | 92 | 1031.2 |
| 20260510165402 | 8 | 0 | 0.0 | 1.6 | 0.00 | 0.03 | 0.03 | 92 | 1031.2 |
| 20260510164502 | 8 | 0 | 0.0 | 1.6 | 0.00 | 0.03 | 0.03 | 92 | 1031.3 |
| 20260510163602 | 8 | 0 | 0.0 | 0.0 | 0.00 | 0.03 | 0.03 | 92 | 1031.4 |
| 20260510162702 | 8 | 0 | 0.0 | 0.0 | 0.00 | 0.03 | 0.03 | 92 | 1031.4 |
| 20260510161802 | 8 | 0 | 0.0 | 0.0 | 0.00 | 0.03 | 0.03 | 92 | 1031.4 |
| 20260510160923 | 8 | 0 | 0.0 | 0.0 | 0.00 | 0.03 | 0.03 | 92 | 1031.4 |
| 20260510160023 | 8 | 0 | 0.0 | 0.0 | 0.03 | 0.05 | 0.03 | 92 | 1031.4 |
| 20260510155423 | 8 | 0 | 0.0 | 0.0 | 0.03 | 0.05 | 0.03 | 92 | 1031.4 |
| 20260510154502 | 8 | 0 | 0.0 | 0.0 | 0.03 | 0.05 | 0.03 | 91 | 1031.4 |
| 20260510153623 | 8 | 0 | 0.0 | 0.0 | 0.03 | 0.05 | 0.03 | 91 | 1031.5 |
| 20260510152702 | 8 | 0 | 0.0 | 0.0 | 0.03 | 0.05 | 0.03 | 91 | 1031.4 |
| 20260510151802 | 9 | 0 | 0.0 | 0.0 | 0.03 | 0.05 | 0.03 | 91 | 1031.3 |
| 20260510150903 | 9 | 0 | 0.0 | 1.6 | 0.03 | 0.05 | 0.03 | 91 | 1031.4 |
| 20260510150023 | 9 | 0 | 0.0 | 3.2 | 0.00 | 0.03 | 0.00 | 91 | 1031.4 |
| 20260510145402 | 9 | 0 | 0.0 | 1.6 | 0.00 | 0.03 | 0.00 | 91 | 1031.5 |
| 20260510144502 | 10 | 157 | 0.0 | 4.8 | 0.00 | 0.03 | 0.00 | 91 | 1031.5 |
| 20260510143602 | 10 | 157 | 3.2 | 8.0 | 0.00 | 0.03 | 0.00 | 91 | 1031.5 |
| 20260510142702 | 10 | 144 | 3.2 | 9.7 | 0.00 | 0.03 | 0.00 | 91 | 1031.5 |
| 20260510141823 | 10 | 147 | 3.2 | 6.4 | 0.00 | 0.03 | 0.00 | 91 | 1031.6 |
| 20260510140902 | 10 | 157 | 4.8 | 6.4 | 0.00 | 0.03 | 0.00 | 91 | 1031.5 |
| 20260510140003 | 10 | 157 | 3.2 | 8.0 | 0.00 | 0.03 | 0.00 | 91 | 1031.6 |
| 20260510135402 | 10 | 157 | 3.2 | 8.0 | 0.00 | 0.03 | 0.03 | 91 | 1031.6 |
| 20260510134502 | 10 | 157 | 3.2 | 8.0 | 0.00 | 0.03 | 0.03 | 90 | 1031.7 |
| 20260510133602 | 10 | 157 | 1.6 | 8.0 | 0.00 | 0.03 | 0.03 | 90 | 1031.7 |
| 20260510132702 | 10 | 156 | 0.0 | 4.8 | 0.00 | 0.03 | 0.03 | 89 | 1031.7 |
| 20260510131802 | 10 | 0 | 0.0 | 3.2 | 0.00 | 0.03 | 0.03 | 89 | 1031.8 |
| 20260510130923 | 10 | 0 | 0.0 | 0.0 | 0.00 | 0.03 | 0.03 | 89 | 1031.7 |
| 20260510130002 | 11 | 157 | 0.0 | 4.8 | 0.00 | 0.03 | 0.03 | 89 | 1031.8 |
| 20260510125402 | 11 | 157 | 1.6 | 4.8 | 0.00 | 0.03 | 0.03 | 89 | 1031.9 |
| 20260510124502 | 11 | 157 | 1.6 | 6.4 | 0.00 | 0.03 | 0.03 | 89 | 1031.9 |
| 20260510123601 | 11 | 157 | 1.6 | 4.8 | 0.00 | 0.03 | 0.03 | 89 | 1031.9 |
| 20260510122702 | 11 | 157 | 1.6 | 4.8 | 0.00 | 0.03 | 0.03 | 89 | 1032.0 |
| 20260510121802 | 11 | 157 | 1.6 | 4.8 | 0.00 | 0.03 | 0.03 | 90 | 1031.9 |
| 20260510120902 | 11 | 157 | 1.6 | 6.4 | 0.00 | 0.03 | 0.03 | 90 | 1032.0 |
| 20260510120002 | 11 | 157 | 1.6 | 6.4 | 0.00 | 0.03 | 0.03 | 90 | 1032.0 |
| 20260510115402 | 11 | 157 | 1.6 | 6.4 | 0.00 | 0.03 | 0.03 | 90 | 1032.0 |
| 20260510114502 | 11 | 157 | 1.6 | 6.4 | 0.00 | 0.03 | 0.03 | 89 | 1032.1 |
| 20260510113602 | 11 | 157 | 1.6 | 4.8 | 0.00 | 0.03 | 0.03 | 90 | 1032.0 |
| 20260510112702 | 11 | 157 | 1.6 | 6.4 | 0.00 | 0.03 | 0.03 | 89 | 1032.0 |
| 20260510111802 | 11 | 153 | 3.2 | 6.4 | 0.00 | 0.03 | 0.03 | 89 | 1031.8 |
| 20260510110923 | 11 | 154 | 3.2 | 8.0 | 0.00 | 0.03 | 0.03 | 89 | 1031.7 |
| 20260510110023 | 11 | 157 | 3.2 | 8.0 | 0.00 | 0.03 | 0.03 | 88 | 1031.7 |
| 20260510105402 | 11 | 148 | 3.2 | 8.0 | 0.00 | 0.03 | 0.03 | 87 | 1031.7 |
| 20260510104523 | 11 | 153 | 1.6 | 6.4 | 0.00 | 0.03 | 0.03 | 86 | 1031.7 |
| 20260510103602 | 11 | 149 | 1.6 | 4.8 | 0.00 | 0.03 | 0.03 | 85 | 1031.5 |
| 20260510102702 | 11 | 124 | 0.0 | 3.2 | 0.00 | 0.03 | 0.03 | 85 | 1031.6 |
| 20260510101802 | 11 | 0 | 0.0 | 4.8 | 0.00 | 0.03 | 0.03 | 85 | 1031.6 |
| 20260510095403 | 11 | 0 | 0.0 | 3.2 | 0.00 | 0.03 | 0.03 | 85 | 1031.5 |
| 20260510094503 | 11 | 0 | 0.0 | 0.0 | 0.00 | 0.03 | 0.03 | 85 | 1031.5 |
| 20260510093624 | 11 | 0 | 0.0 | 0.0 | 0.00 | 0.03 | 0.03 | 85 | 1031.4 |
| 20260510092703 | 11 | 0 | 0.0 | 0.0 | 0.00 | 0.03 | 0.03 | 85 | 1031.3 |
| 20260510091803 | 11 | 0 | 0.0 | 1.6 | 0.00 | 0.03 | 0.03 | 84 | 1031.3 |
| 20260510090925 | 11 | 0 | 0.0 | 0.0 | 0.00 | 0.03 | 0.03 | 83 | 1031.3 |
| 20260510090004 | 11 | 0 | 0.0 | 1.6 | 0.00 | 0.03 | 0.03 | 82 | 1031.2 |
| 20260510085424 | 11 | 0 | 0.0 | 0.0 | 0.00 | 0.03 | 0.03 | 83 | 1031.3 |
| 20260510084525 | 11 | 0 | 0.0 | 0.0 | 0.00 | 0.03 | 0.03 | 82 | 1031.1 |
| 20260510083604 | 11 | 0 | 0.0 | 0.0 | 0.00 | 0.03 | 0.03 | 82 | 1031.0 |
| 20260510082703 | 11 | 0 | 0.0 | 0.0 | 0.00 | 0.03 | 0.03 | 81 | 1031.0 |
| 20260510081804 | 12 | 0 | 0.0 | 0.0 | 0.00 | 0.03 | 0.03 | 80 | 1031.0 |
| 20260510080904 | 12 | 0 | 0.0 | 0.0 | 0.00 | 0.03 | 0.03 | 79 | 1030.8 |
| 20260510080004 | 12 | 0 | 0.0 | 0.0 | 0.00 | 0.03 | 0.03 | 78 | 1030.8 |
| 20260510075404 | 12 | 0 | 0.0 | 0.0 | 0.00 | 0.03 | 0.03 | 78 | 1030.7 |
| 20260510074503 | 13 | 0 | 0.0 | 0.0 | 0.00 | 0.03 | 0.03 | 77 | 1030.6 |
| 20260510073603 | 13 | 0 | 0.0 | 3.2 | 0.00 | 0.03 | 0.03 | 76 | 1030.6 |
| 20260510072704 | 13 | 0 | 0.0 | 0.0 | 0.00 | 0.03 | 0.03 | 75 | 1030.5 |
| 20260510071803 | 14 | 0 | 0.0 | 3.2 | 0.00 | 0.03 | 0.03 | 74 | 1030.4 |
| 20260510070903 | 14 | 157 | 0.0 | 3.2 | 0.00 | 0.03 | 0.03 | 73 | 1030.4 |
| 20260510070004 | 15 | 157 | 1.6 | 3.2 | 0.00 | 0.03 | 0.03 | 73 | 1030.3 |
| 20260510065403 | 15 | 157 | 1.6 | 4.8 | 0.00 | 0.03 | 0.03 | 72 | 1030.2 |
| 20260510064524 | 15 | 157 | 1.6 | 4.8 | 0.00 | 0.03 | 0.03 | 71 | 1030.3 |
| 20260510063603 | 15 | 157 | 1.6 | 4.8 | 0.00 | 0.03 | 0.03 | 71 | 1030.2 |
| 20260510062703 | 15 | 157 | 1.6 | 6.4 | 0.00 | 0.03 | 0.03 | 70 | 1030.2 |
| 20260510061803 | 15 | 157 | 3.2 | 6.4 | 0.00 | 0.03 | 0.03 | 70 | 1030.1 |
| 20260510060903 | 15 | 157 | 3.2 | 6.4 | 0.00 | 0.03 | 0.03 | 69 | 1030.1 |
| 20260510060003 | 16 | 157 | 3.2 | 9.7 | 0.00 | 0.03 | 0.03 | 69 | 1030.1 |
| 20260510055403 | 16 | 157 | 3.2 | 9.7 | 0.00 | 0.03 | 0.03 | 68 | 1030.1 |
| 20260510054503 | 16 | 157 | 3.2 | 9.7 | 0.00 | 0.03 | 0.03 | 69 | 1030.1 |
| 20260510053603 | 16 | 157 | 1.6 | 8.0 | 0.00 | 0.03 | 0.03 | 70 | 1030.0 |
| 20260510052703 | 15 | 157 | 0.0 | 6.4 | 0.00 | 0.03 | 0.03 | 70 | 1029.9 |
| 20260510051803 | 15 | 157 | 0.0 | 1.6 | 0.00 | 0.03 | 0.03 | 71 | 1029.8 |
| 20260510050903 | 15 | 157 | 1.6 | 3.2 | 0.00 | 0.03 | 0.03 | 71 | 1029.9 |
| 20260510050003 | 16 | 157 | 3.2 | 4.8 | 0.00 | 0.03 | 0.03 | 68 | 1029.8 |
| 20260510045403 | 16 | 157 | 4.8 | 6.4 | 0.00 | 0.03 | 0.03 | 67 | 1029.7 |
| 20260510044503 | 16 | 157 | 4.8 | 14.5 | 0.00 | 0.03 | 0.03 | 67 | 1029.9 |
| 20260510043603 | 17 | 157 | 3.2 | 9.7 | 0.00 | 0.03 | 0.03 | 67 | 1029.8 |
| 20260510042703 | 16 | 157 | 1.6 | 6.4 | 0.00 | 0.03 | 0.03 | 69 | 1029.8 |
| 20260510041824 | 16 | 157 | 3.2 | 6.4 | 0.00 | 0.03 | 0.03 | 68 | 1029.9 |
| 20260510040903 | 16 | 157 | 3.2 | 8.0 | 0.00 | 0.03 | 0.03 | 68 | 1030.0 |
| 20260510040004 | 16 | 157 | 3.2 | 9.7 | 0.00 | 0.03 | 0.03 | 67 | 1030.1 |
| 20260510035403 | 16 | 157 | 3.2 | 9.7 | 0.00 | 0.03 | 0.03 | 67 | 1030.1 |
| 20260510034503 | 16 | 157 | 3.2 | 9.7 | 0.00 | 0.03 | 0.03 | 69 | 1030.1 |
| 20260510033603 | 16 | 157 | 3.2 | 8.0 | 0.00 | 0.03 | 0.03 | 68 | 1030.1 |
| 20260510032703 | 15 | 157 | 3.2 | 12.9 | 0.00 | 0.03 | 0.03 | 70 | 1030.1 |
| 20260510031803 | 15 | 157 | 3.2 | 12.9 | 0.00 | 0.03 | 0.03 | 72 | 1030.1 |
| 20260510030903 | 15 | 157 | 1.6 | 12.9 | 0.00 | 0.03 | 0.03 | 70 | 1030.2 |
| 20260510030004 | 15 | 157 | 1.6 | 4.8 | 0.00 | 0.03 | 0.03 | 70 | 1030.3 |
| 20260510025403 | 15 | 157 | 1.6 | 8.0 | 0.00 | 0.03 | 0.03 | 71 | 1030.3 |
| 20260510024503 | 15 | 157 | 1.6 | 6.4 | 0.00 | 0.03 | 0.03 | 71 | 1030.5 |
| 20260510023603 | 15 | 157 | 1.6 | 6.4 | 0.00 | 0.03 | 0.03 | 72 | 1030.6 |
| 20260510022703 | 15 | 157 | 1.6 | 4.8 | 0.00 | 0.03 | 0.03 | 72 | 1030.7 |
| 20260510021803 | 14 | 157 | 1.6 | 9.7 | 0.00 | 0.03 | 0.03 | 72 | 1030.9 |
| 20260510020924 | 14 | 157 | 1.6 | 6.4 | 0.00 | 0.03 | 0.03 | 73 | 1031.0 |
| 20260510020024 | 15 | 157 | 0.0 | 6.4 | 0.00 | 0.03 | 0.03 | 75 | 1031.0 |
| 20260510015425 | 14 | 157 | 1.6 | 6.4 | 0.00 | 0.03 | 0.03 | 75 | 1031.1 |
| 20260510014504 | 14 | 157 | 0.0 | 6.4 | 0.00 | 0.03 | 0.03 | 74 | 1031.2 |
| 20260510013603 | 14 | 0 | 0.0 | 3.2 | 0.00 | 0.03 | 0.03 | 76 | 1031.3 |
| 20260510012703 | 14 | 157 | 0.0 | 1.6 | 0.00 | 0.03 | 0.03 | 76 | 1031.4 |
| 20260510011824 | 14 | 157 | 0.0 | 3.2 | 0.00 | 0.03 | 0.03 | 78 | 1031.5 |
| 20260510010903 | 13 | 0 | 0.0 | 3.2 | 0.00 | 0.03 | 0.03 | 79 | 1031.4 |
| 20260510010003 | 13 | 0 | 0.0 | 4.8 | 0.00 | 0.03 | 0.03 | 81 | 1031.4 |
| 20260510005404 | 13 | 0 | 0.0 | 3.2 | 0.00 | 0.03 | 0.03 | 83 | 1031.4 |
| 20260510004503 | 13 | 0 | 0.0 | 1.6 | 0.00 | 0.03 | 0.03 | 84 | 1031.4 |
| 20260510003603 | 13 | 0 | 0.0 | 3.2 | 0.00 | 0.03 | 0.03 | 86 | 1031.5 |
| 20260510002703 | 12 | 157 | 0.0 | 4.8 | 0.00 | 0.03 | 0.03 | 89 | 1031.5 |
| 20260510001803 | 13 | 0 | 0.0 | 3.2 | 0.00 | 0.03 | 0.03 | 91 | 1031.4 |
| 20260510000903 | 13 | 0 | 0.0 | 3.2 | 0.00 | 0.03 | 0.03 | 93 | 1031.4 |
| 20260510000003 | 12 | 157 | 0.0 | 4.8 | 0.00 | 0.03 | 0.03 | 93 | 1031.4 |
| 20260509235403 | 12 | 157 | 0.0 | 4.8 | 0.00 | 0.03 | 0.03 | 94 | 1031.4 |
| 20260509234503 | 12 | 0 | 0.0 | 3.2 | 0.00 | 0.03 | 0.03 | 95 | 1031.3 |
| 20260509233603 | 12 | 0 | 0.0 | 3.2 | 0.00 | 0.03 | 0.03 | 94 | 1031.3 |
| 20260509232703 | 12 | 0 | 0.0 | 3.2 | 0.00 | 0.03 | 0.03 | 95 | 1031.2 |
| 20260509231803 | 12 | 0 | 0.0 | 0.0 | 0.00 | 0.03 | 0.03 | 95 | 1031.3 |
| 20260509230903 | 12 | 0 | 0.0 | 3.2 | 0.00 | 0.03 | 0.03 | 94 | 1031.3 |
| 20260509230024 | 12 | 0 | 0.0 | 1.6 | 0.00 | 0.03 | 0.03 | 94 | 1031.3 |
| 20260509225403 | 12 | 0 | 0.0 | 0.0 | 0.00 | 0.03 | 0.03 | 95 | 1031.2 |
| 20260509224524 | 12 | 0 | 0.0 | 0.0 | 0.00 | 0.03 | 0.03 | 95 | 1031.2 |
| 20260509223603 | 12 | 0 | 0.0 | 0.0 | 0.00 | 0.03 | 0.03 | 95 | 1031.1 |
| 20260509222704 | 11 | 0 | 0.0 | 0.0 | 0.00 | 0.03 | 0.03 | 95 | 1031.0 |
| 20260509221803 | 11 | 0 | 0.0 | 0.0 | 0.00 | 0.03 | 0.03 | 95 | 1030.9 |
| 20260509220903 | 11 | 0 | 0.0 | 0.0 | 0.00 | 0.03 | 0.03 | 94 | 1030.8 |
| 20260509220003 | 11 | 0 | 0.0 | 0.0 | 0.00 | 0.03 | 0.03 | 94 | 1030.6 |
| 20260509215403 | 11 | 0 | 0.0 | 0.0 | 0.00 | 0.03 | 0.03 | 94 | 1030.6 |
| 20260509214503 | 11 | 0 | 0.0 | 0.0 | 0.00 | 0.03 | 0.03 | 94 | 1030.5 |
| 20260509213603 | 11 | 0 | 0.0 | 0.0 | 0.00 | 0.03 | 0.03 | 94 | 1030.3 |
| 20260509212703 | 11 | 0 | 0.0 | 0.0 | 0.00 | 0.03 | 0.03 | 94 | 1030.2 |
| 20260509211803 | 11 | 0 | 0.0 | 0.0 | 0.00 | 0.03 | 0.03 | 94 | 1030.1 |
| 20260509210903 | 11 | 0 | 0.0 | 0.0 | 0.00 | 0.03 | 0.03 | 94 | 1030.0 |
| 20260509210003 | 11 | 0 | 0.0 | 0.0 | 0.00 | 0.03 | 0.03 | 94 | 1029.9 |
| 20260509205403 | 11 | 0 | 0.0 | 0.0 | 0.00 | 0.03 | 0.03 | 94 | 1029.9 |